SAO JOSE DO CAMPESTRE CAMARA MUNICIPAL
| RV COMERCIO E SERVICOS LTDA | R$ 140.607,40 |
| POTENGI CONSULTORIA, ASSESSORIA E SERVIÇOS EIRELI | R$ 119.988,00 |
| WERLEY FERNANDES CONSULTORIA E CONTABILIDADE LTDA | R$ 102.000,00 |
| CONECTA SOLUCOES EMPRES | R$ 72.000,00 |
| LUIS HENRIQUE SOCIEDADE INDIVIDUAL DE ADVOCACIA | R$ 63.600,00 |
| PACT DATA ASSESSORIA LTDA | R$ 61.500,00 |
| ADM SOLUCOES LTDA | R$ 60.000,00 |
| IRILENE DA SILVA MATIAS | R$ 56.563,55 |
HHI — referência pública (DOJ/EUA): competitivo (< 1.500) · moderadamente concentrado (1.500–2.500) · concentrado (> 2.500). Indicador de concentração, não juízo sobre a gestão.
| Contrato / objeto | Fornecedor | Valor global | Vigência |
|---|---|---|---|
08712259000177-2-000001/2026 | LUIS HENRIQUE SOCIEDADE INDIVIDUAL DE ADVOCACIA | R$ 63.600,00 | 31/03/2027 |
08712259000177-2-000020/2025 | RV COMERCIO E SERVICOS LTDA | R$ 40.883,00 | 30/12/2026 |
08712259000177-2-000019/2025 | JOSENILDO FELIX DA SILVA | R$ 13.900,00 | 30/12/2026 |
08712259000177-2-000021/2025 | RV COMERCIO E SERVICOS LTDA | R$ 51.725,00 | 30/12/2026 |
08712259000177-2-000011/2025 | AVF COMERCIO E SERVICO LTDA | R$ 48.870,36 | 26/06/2026 |
08712259000177-2-000010/2025 | PACT DATA ASSESSORIA LTDA | R$ 61.500,00 | 22/05/2026 |
08712259000177-2-000009/2025 | ADM SOLUCOES LTDA | R$ 60.000,00 | 21/05/2025 |
08712259000177-2-000008/2025 | ISMAEL JACINTO DE MEDEIROS SENA | R$ 34.701,00 | 30/04/2026 |
08712259000177-2-000004/2025 | RMS NET SERVICOS LTDA | R$ 24.390,00 | 10/04/2026 |
08712259000177-2-000007/2025 | MARCELO JOSE BARBOSA RODRIGUES DE LIMA | R$ 30.000,00 | 10/04/2026 |
08712259000177-2-000006/2025 | ASP AUTOMAÇÃO, SERV E PRODUTOS DE INFORMATICA LTDA | R$ 30.000,00 | 10/04/2026 |
08712259000177-2-000005/2025 | E A DE S MEDEIROS ASSESSORIA E CONSULTORIA | R$ 54.000,00 | 10/04/2026 |
08712259000177-2-000002/2025 | NP TECNOLOGIA E GESTAO DE DADOS LTDA | R$ 4.525,00 | 28/03/2026 |
08712259000177-2-000003/2025 | WERLEY FERNANDES CONSULTORIA E CONTABILIDADE LTDA | R$ 102.000,00 | 28/03/2026 |
08712259000177-2-000001/2025 | POTENGI CONSULTORIA, ASSESSORIA E SERVIÇOS EIRELI | R$ 72.000,00 | 28/03/2028 |
08712259000177-2-000024/2024 | SINASP SISTEMAS INFORMA | R$ 20.000,01 | 31/12/2024 |
08712259000177-2-000018/2024 | CONECTA SOLUCOES EMPRES | R$ 72.000,00 | 14/10/2024 |
08712259000177-2-000017/2024 | AUTESP - AUTOMACAO, TEC | R$ 33.000,00 | 31/12/2024 |
08712259000177-2-000016/2024 | IRILENE DA SILVA MATIAS | R$ 56.563,55 | 31/12/2024 |
08712259000177-2-000014/2024 | IRENE DE OLIVEIRA 02845 | R$ 714,10 | 31/12/2024 |
08712259000177-2-000015/2024 | AGRESTE CONSTRUTORA E C | R$ 56.100,00 | 31/12/2024 |
08712259000177-2-000012/2024 | M J D DE LIMA | R$ 51.600,00 | 31/12/2024 |
08712259000177-2-000013/2024 | DROGAFARMA COMERCIALIZA | R$ 31.706,00 | 31/12/2024 |
08712259000177-2-000011/2024 | HRM COMERCIO E SERVICO | R$ 47.999,40 | 31/12/2024 |
08712259000177-2-000009/2024 | JOSE ASSUEIRO COSTA VIE | R$ 16.800,00 | 31/12/2024 |
08712259000177-2-000010/2024 | M L DE PAIVA | R$ 26.400,00 | 31/12/2024 |
08712259000177-2-000008/2024 | IBDM MODERNIZAÇÃO, ASES | R$ 2.604,00 | 31/12/2024 |
08712259000177-2-000007/2024 | L DO NASCIMENTO ASSESSO | R$ 27.600,00 | 31/12/2024 |
08712259000177-2-000006/2024 | A. O. S. SOFTWARE LTDA | R$ 12.000,00 | 31/12/2024 |
08712259000177-2-000005/2024 | REGINALDO GOMES DA SILV | R$ 54.000,00 | 31/12/2024 |
08712259000177-2-000002/2024 | ASP AUTOMACAO SERVICOS | R$ 16.200,00 | 31/12/2024 |
08712259000177-2-000003/2024 | POTENGI CONSULTORIA, AS | R$ 47.988,00 | 31/12/2024 |
08712259000177-2-000001/2024 | AGGASYSTEMRN PROVEDOR D | R$ 21.600,00 | 31/12/2024 |
08712259000177-2-000004/2024 | CRISTIANE LEITE DA SILV | R$ 30.000,00 | 31/12/2024 |
08712259000177-2-000002/2023 | VG COMERCIO E SERVICOS | R$ 17.566,00 | 30/04/2024 |
08712259000177-2-000001/2023 | VG COMERCIO E SERVICOS | R$ 9.900,00 | 30/04/2024 |
Fornecedor pessoa física é omitido por proteção de dados (LGPD).
⚖ Este perfil é montado exclusivamente sobre dados públicos — divulgação obrigatória por força do art. 8º da Lei de Acesso à Informação (12.527/2011) e dos arts. 54 e 174 da Lei 14.133/2021 (PNCP) — e do Portal da Transparência (CEIS/CNEP). Indicadores são estatística transparente (metodologia), não juízo de conduta. Contestações pelo formulário — o pedido fica registrado, não depende de e-mail, e respondemos em até 5 dias úteis.